Regional Weather Roundup
Issued by NWS

Current Version | Previous Version | Text Only | Print | Product List | Glossary On
Versions: 1 2 3 4 5 6 7 8 9 10 11 12 13 14 15 16 17 18 19 20 21 22 23 24 25 26 27
000
ASUS45 KBOU 301310
RWRCO

WEATHER ROUNDUP FOR COLORADO
NATIONAL WEATHER SERVICE DENVER/BOULDER CO
700 AM MDT FRI SEP 30 2022

NOTE: "FAIR" INDICATES FEW OR NO CLOUDS BELOW 12000 FEET WITH NO
SIGNIFICANT WEATHER AND/OR OBSTRUCTIONS TO VISIBILITY.

COZ001>005-013-030-031-301400-
...NORTHWEST COLORADO...

CITY           SKY/WX    TMP DP  RH WIND       PRES   REMARKS
CRAIG          CLOUDY    53  47  79 SE9       30.13F
HAYDEN         LGT RAIN  49  46  90 E14       30.19F
MEEKER         CLOUDY    52  46  80 CALM      30.15F
RANGELY        MOCLDY    55  49  82 E7        30.09S
RABBIT EARS PA DRIZZLE   39  39 100 S3        30.39F
STEAMBOAT SPGS CLOUDY    50  47  90 N6        30.18F
WALDEN         CLOUDY    43  37  81 CALM      30.28S
$$

COZ006>008-011-301400-
...WEST CENTRAL VALLEYS...

CITY           SKY/WX    TMP DP  RH WIND       PRES   REMARKS
GRAND JUNCTION LGT RAIN  59  52  77 E15       30.06F
MONTROSE       FAIR      55  43  63 SE10      30.15F
EAGLE          LGT RAIN  46  39  76 E13       30.25F
RIFLE          FAIR      53  48  83 E7        30.14F
DELTA          MOCLDY    58  49  72 E5        30.13F
NUCLA          NOT AVBL
$$

COZ017>023-064>068-301400-
...SOUTHWEST COLORADO...

CITY           SKY/WX    TMP DP  RH WIND       PRES   REMARKS
DURANGO        FAIR      45  38  76 E3        30.24S
CORTEZ         FAIR      41  38  89 CALM      30.18S
PAGOSA SPRINGS MOCLDY    42  37  82 CALM      30.31S
TELLURIDE      CLOUDY    46  32  57 S3        30.36F
WOLF CREEK PAS FAIR      36  21  55 SW10G18   30.56S
$$

COZ009-010-012-014-032>034-037-058>063-301400-
...CENTRAL COLORADO...

CITY           SKY/WX    TMP DP  RH WIND       PRES   REMARKS
ASPEN          CLOUDY    45  41  86 CALM      30.28R
BUENA VISTA      N/A     39  35  84 CALM      30.29S
COPPER MTN     MOCLDY    45  32  61 S7        30.49F
BERTHOUD PASS  FAIR      34  28  80 W23G32    30.48F WCI  22
DAKOTA HILL    FAIR      41  30  65 W6        30.40S
COTTONWOOD PAS FAIR      48  32  53 SE5       30.37S
GUNNISON       FAIR      36  34  92 CALM      30.33S
GRANBY         CLOUDY    37  36  96 CALM      30.31S
KREMMLING      FAIR      37  37 100 CALM      30.28S
LEADVILLE      MOCLDY    32  30  92 NE3       30.37S
MONARCH PASS   CLOUDY    37  30  75 SW17      30.59S
SALIDA         FAIR      48  37  66 NW9       30.34S
SUNLIGHT       CLOUDY    37  36  93 SW10G21   30.43F
WILKERSON PASS FAIR      41  30  65 S9G16     30.47S
$$

COZ069>075-301400-
...SAN LUIS VALLEY/SANGRE DE CRISTO MOUNTAINS...

CITY           SKY/WX    TMP DP  RH WIND       PRES   REMARKS
ALAMOSA        FAIR      33  30  88 S3        30.30R
DEL NORTE      FAIR      41  34  75 CALM      30.33R
LA VETA PASS   FAIR      41  10  28 W15       30.39S
SAGUACHE       FAIR      37  34  87 NW8       30.32S
$$

COZ035-036-038>040-301400-
...NORTHERN COLORADO FRONT RANGE...

CITY           SKY/WX    TMP DP  RH WIND       PRES   REMARKS
DENVER INTL AP FAIR      56  39  53 SW12      30.07F
AURORA         PTCLDY    53  38  58 S10       30.10S
WATKINS        NOT AVBL
ERIE           FAIR      49  40  71 CALM      30.07F
BOULDER        FAIR      55  39  54 CALM      30.07S
CENTENNIAL     FAIR      50  38  63 S3        30.11F
BROOMFIELD     PTCLDY    55  37  50 W3        30.09F
FORT COLLINS   FAIR      52  45  77 N6        30.07S
LONGMONT       FAIR      51  41  68 CALM      30.08S
$$

COZ041-046-047-076>085-087-088-301400-
...PIKES PEAK/PALMER DIVIDE AND SOUTHERN FOOTHILLS...

CITY           SKY/WX    TMP DP  RH WIND       PRES   REMARKS
COLO. SPRINGS  FAIR      53  36  52 N8        30.15S
A. F. ACADEMY  FAIR      52  35  53 N9        30.14F
SCHRIEVER AFB  NOT AVBL
CHEYENNE MTN   MOCLDY    59  34  39 NW5       29.50S
ELLICOTT       FAIR      53  36  52 E3        30.13F
FALCON         FAIR      49  34  58 W9        30.18F
FORT CARSON    FAIR      52  33  49 NW7       30.10S
LIMON          FAIR      50  37  61 N5        30.08S
MONUMENT HILL  FAIR      50  34  53 SW10      30.20S
CANON CITY     FAIR      61  37  41 W12       30.11S
WALSENBURG     NOT AVBL
TRINIDAD       FAIR      51  33  50 W14       30.15S
$$

COZ042>045-048>051-090-091-301400-
...NORTHEAST COLORADO...

CITY           SKY/WX    TMP DP  RH WIND       PRES   REMARKS
GREELEY        FAIR      46  42  86 CALM      30.06S
AKRON          FAIR      51  43  74 W9        30.03
BURLINGTON     FAIR      48  36  63 SW6       30.02R
WRAY           FAIR      46  45  93 NW7       30.00R
YUMA           FAIR      48  28  46 CALM      30.01R
STERLING       FAIR      46  45  93 SE5       30.01S
HOLYOKE        FAIR      46  43  87 CALM      30.00S
FORT MORGAN    FAIR      54  45  71 W8        30.04S
$$

COZ086-089-092>099-301400-
...SOUTHEAST COLORADO...

CITY           SKY/WX    TMP DP  RH WIND       PRES   REMARKS
PUEBLO         FAIR      51  36  56 W7        30.06F
LA JUNTA       FAIR      56  35  45 W13       30.03F
LAMAR          FAIR      53  36  52 NE6       30.01R
SPRINGFIELD      N/A     61  37  41 SW10G21   30.07S
$$



USA.gov is the U.S. government's official web portal to all federal, state and local government web resources and services.